User: anonymous   Login
Location: Unspecified
(0.0000°N, 0.0000°E)
Time: 23:28:43
(UTC+00:00)
Language:

Envisat - Orbit

View from above orbital plane
View from above orbital plane
View from above satellite
View from above satellite

Ground track
Ground track

The orbit data is extracted from the following two-line orbital elements,

1 27386U 02009A   17054.54263179 -.00000025  00000-0  53691-5 0  9998
2 27386  98.2476 104.4740 0001135  82.6872 277.4446 14.37888550784740
Epoch (UTC): 23 February 2017 13:01:23
Eccentricity: 0.0001135
inclination: 98.2476°
perigee height: 764 km
apogee height: 766 km
right ascension of ascending node: 104.4740°
argument of perigee: 82.6872°
revolutions per day: 14.37888550
mean anomaly at epoch: 277.4446°
orbit number at epoch: 78474

The dashed part of the orbit path shows where the satellite is in the earth's shadow,  

DLR